MPH6121 KMIA-SKBO

Flight info

Callsign MPH6121
Flight time 2h 50m
Altitude 35000
Route GWAVA2 URSUS UP406 BILSI DCT ALTIB UL795 LENAX UL417 NEFTU UP525 RONLU/N0495F370 UP525 EJA UW91 ILSEV ILSEV5E
Aircraft B744/H-SDE3FGHIM1M2RWXY/LB1

Departure

Time 2026-05-06 14:22
Airport Miami International Airport (KMIA)

Arrival

Time 2026-05-06 17:13
Airport El Dorado International Airport (SKBO)
Time Latitude Longitude Altitude Speed Heading
2026-05-06 14:13 25.80468 -80.30199 18 ft 0 kts 89°
2026-05-06 14:15 25.80468 -80.30207 18 ft 1 kts 87°
2026-05-06 14:15 25.80467 -80.30222 18 ft 1 kts 91°
2026-05-06 14:15 25.80468 -80.30237 18 ft 1 kts 96°
2026-05-06 14:16 25.80470 -80.30250 18 ft 1 kts 102°
2026-05-06 14:16 25.80474 -80.30263 18 ft 1 kts 121°
2026-05-06 14:16 25.80485 -80.30270 18 ft 1 kts 185°
2026-05-06 14:16 25.80497 -80.30267 18 ft 1 kts 191°
2026-05-06 14:17 25.80508 -80.30267 18 ft 0 kts 173°
2026-05-06 14:19 25.80484 -80.30263 18 ft 6 kts 173°
2026-05-06 14:19 25.80419 -80.30254 18 ft 12 kts 170°
2026-05-06 14:19 25.80384 -80.30184 18 ft 13 kts 102°
2026-05-06 14:19 25.80303 -80.30123 18 ft 18 kts 179°
2026-05-06 14:20 25.80169 -80.30125 18 ft 19 kts 178°
2026-05-06 14:20 25.80077 -80.30057 18 ft 12 kts 91°
2026-05-06 14:20 25.80077 -80.30044 18 ft 0 kts 88°
2026-05-06 14:20 25.80078 -80.30037 18 ft 1 kts 87°
2026-05-06 14:21 25.80079 -80.30024 18 ft 2 kts 86°
2026-05-06 14:21 25.80080 -80.30001 18 ft 5 kts 86°
2026-05-06 14:21 25.80085 -80.29894 18 ft 37 kts 88°
2026-05-06 14:21 25.80105 -80.29371 18 ft 95 kts 87°
2026-05-06 14:22 25.80144 -80.28457 19 ft 142 kts 87°
2026-05-06 14:22 25.80196 -80.27222 37 ft 177 kts 86°
2026-05-06 14:22 25.80288 -80.25851 381 ft 182 kts 89°
2026-05-06 14:22 25.80240 -80.24412 735 ft 191 kts 97°
2026-05-06 14:23 25.79798 -80.23042 1165 ft 196 kts 122°
2026-05-06 14:23 25.78877 -80.22067 1558 ft 202 kts 150°
2026-05-06 14:23 25.77498 -80.21491 1987 ft 207 kts 156°
2026-05-06 14:23 25.76140 -80.20848 2177 ft 220 kts 150°
2026-05-06 14:24 25.74745 -80.19998 2369 ft 234 kts 145°
2026-05-06 14:24 25.73273 -80.19113 2469 ft 254 kts 159°
2026-05-06 14:24 25.71467 -80.18829 2695 ft 269 kts 182°
2026-05-06 14:24 25.69597 -80.19039 3217 ft 272 kts 182°
2026-05-06 14:25 25.67732 -80.19082 3724 ft 273 kts 179°
2026-05-06 14:25 25.65872 -80.19280 4210 ft 276 kts 185°
2026-05-06 14:25 25.63962 -80.19523 4709 ft 280 kts 184°
2026-05-06 14:25 25.61988 -80.19574 5269 ft 280 kts 168°
2026-05-06 14:26 25.60170 -80.18798 5729 ft 282 kts 144°
2026-05-06 14:26 25.58561 -80.17545 6184 ft 286 kts 142°
2026-05-06 14:26 25.56894 -80.16325 6691 ft 290 kts 146°
2026-05-06 14:26 25.55161 -80.15184 7240 ft 293 kts 148°
2026-05-06 14:27 25.53347 -80.14011 7813 ft 297 kts 148°
2026-05-06 14:27 25.51553 -80.12838 8350 ft 301 kts 147°
2026-05-06 14:27 25.49711 -80.11634 8889 ft 306 kts 147°
2026-05-06 14:27 25.47876 -80.10432 9420 ft 310 kts 147°
2026-05-06 14:28 25.45998 -80.09202 9989 ft 313 kts 148°
2026-05-06 14:28 25.44118 -80.07970 10525 ft 317 kts 148°
2026-05-06 14:28 25.42177 -80.06696 10852 ft 330 kts 147°
2026-05-06 14:28 25.40141 -80.05358 11058 ft 348 kts 148°
2026-05-06 14:29 25.37975 -80.03941 11215 ft 367 kts 148°
2026-05-06 14:29 25.35677 -80.02435 11325 ft 388 kts 148°
2026-05-06 14:29 25.33283 -80.00865 11441 ft 408 kts 148°
2026-05-06 14:29 25.30802 -79.99240 11866 ft 417 kts 148°
2026-05-06 14:30 25.28281 -79.97591 12462 ft 422 kts 148°
2026-05-06 14:30 25.25734 -79.95912 13090 ft 425 kts 147°
2026-05-06 14:30 25.23230 -79.94157 13711 ft 429 kts 146°
2026-05-06 14:30 25.20713 -79.92351 14268 ft 434 kts 145°
2026-05-06 14:31 25.18156 -79.90515 14801 ft 440 kts 145°
2026-05-06 14:31 25.15544 -79.88650 15384 ft 445 kts 145°
2026-05-06 14:31 25.12928 -79.86787 15926 ft 450 kts 145°
2026-05-06 14:31 25.10270 -79.84900 16478 ft 454 kts 145°
2026-05-06 14:32 25.07620 -79.83020 16967 ft 460 kts 145°
2026-05-06 14:32 25.04894 -79.81089 17506 ft 464 kts 145°
2026-05-06 14:32 25.02125 -79.79131 18005 ft 469 kts 145°
2026-05-06 14:32 24.99368 -79.77183 18572 ft 472 kts 145°
2026-05-06 14:33 24.96611 -79.75237 19119 ft 475 kts 146°
2026-05-06 14:33 24.93782 -79.73245 19644 ft 479 kts 146°
2026-05-06 14:33 24.90972 -79.71269 20144 ft 482 kts 146°
2026-05-06 14:33 24.88097 -79.69253 20641 ft 486 kts 146°
2026-05-06 14:34 24.85243 -79.67242 21089 ft 490 kts 146°
2026-05-06 14:34 24.82347 -79.65196 21567 ft 493 kts 146°
2026-05-06 14:34 24.79429 -79.63130 22009 ft 496 kts 146°
2026-05-06 14:34 24.76497 -79.61058 22450 ft 500 kts 146°
2026-05-06 14:35 24.73576 -79.58997 22864 ft 503 kts 146°
2026-05-06 14:35 24.70597 -79.56898 23274 ft 507 kts 146°
2026-05-06 14:35 24.67597 -79.54786 23708 ft 510 kts 146°
2026-05-06 14:35 24.64597 -79.52676 24115 ft 513 kts 146°
2026-05-06 14:36 24.61576 -79.50554 24526 ft 517 kts 146°
2026-05-06 14:36 24.58491 -79.48389 24920 ft 520 kts 146°
2026-05-06 14:36 24.55438 -79.46246 25278 ft 524 kts 146°
2026-05-06 14:36 24.52323 -79.44063 25688 ft 527 kts 146°
2026-05-06 14:37 24.49224 -79.41892 26036 ft 531 kts 146°
2026-05-06 14:37 24.46057 -79.39674 26433 ft 533 kts 146°
2026-05-06 14:37 24.42912 -79.37475 26774 ft 537 kts 146°
2026-05-06 14:37 24.39744 -79.35263 27111 ft 540 kts 146°
2026-05-06 14:38 24.36573 -79.33053 27474 ft 543 kts 146°
2026-05-06 14:38 24.33350 -79.30814 27838 ft 546 kts 146°
2026-05-06 14:38 24.30131 -79.28581 28186 ft 548 kts 146°
2026-05-06 14:38 24.26959 -79.26341 28494 ft 551 kts 145°
2026-05-06 14:39 24.23683 -79.23985 28827 ft 554 kts 145°
2026-05-06 14:39 24.20435 -79.21636 29151 ft 557 kts 145°
2026-05-06 14:39 24.17308 -79.19373 29416 ft 560 kts 145°
2026-05-06 14:39 24.13945 -79.16946 29812 ft 561 kts 145°
2026-05-06 14:40 24.10661 -79.14587 30320 ft 559 kts 145°
2026-05-06 14:40 24.07456 -79.12289 30915 ft 555 kts 145°
2026-05-06 14:40 24.04232 -79.09985 31557 ft 550 kts 145°
2026-05-06 14:40 24.01027 -79.07761 31985 ft 549 kts 149°
2026-05-06 14:41 23.97614 -79.06122 32304 ft 550 kts 162°
2026-05-06 14:41 23.93959 -79.05250 32645 ft 549 kts 171°
2026-05-06 14:41 23.90139 -79.04648 32956 ft 550 kts 172°
2026-05-06 14:41 23.86386 -79.04108 33310 ft 550 kts 173°
2026-05-06 14:42 23.82667 -79.03610 33726 ft 549 kts 172°
2026-05-06 14:42 23.78947 -79.02988 34206 ft 546 kts 171°
2026-05-06 14:42 23.75169 -79.02279 34738 ft 542 kts 169°
2026-05-06 14:42 23.71614 -79.01536 35173 ft 540 kts 168°
2026-05-06 14:43 23.67813 -79.00666 35478 ft 541 kts 168°
2026-05-06 14:43 23.64182 -78.99846 35713 ft 542 kts 169°
2026-05-06 14:43 23.60457 -78.99075 35998 ft 542 kts 169°
2026-05-06 14:43 23.56723 -78.98340 36335 ft 541 kts 170°
2026-05-06 14:44 23.53054 -78.97629 36676 ft 540 kts 170°
2026-05-06 14:44 23.49519 -78.96941 37007 ft 538 kts 170°
2026-05-06 14:45 23.38381 -78.94756 37068 ft 538 kts 170°
2026-05-06 14:45 23.31019 -78.93317 37070 ft 539 kts 170°
2026-05-06 14:46 23.23764 -78.91361 37090 ft 538 kts 160°
2026-05-06 14:46 23.16882 -78.88029 37088 ft 538 kts 148°
2026-05-06 14:47 23.10682 -78.83553 37081 ft 536 kts 142°
2026-05-06 14:47 23.04673 -78.78871 37076 ft 535 kts 141°
2026-05-06 14:48 22.98726 -78.73933 37071 ft 536 kts 140°
2026-05-06 14:48 22.92804 -78.68993 37076 ft 535 kts 140°
2026-05-06 14:49 22.86923 -78.64121 37066 ft 535 kts 140°
2026-05-06 14:49 22.80997 -78.59226 37071 ft 536 kts 140°
2026-05-06 14:50 22.75058 -78.54324 37064 ft 533 kts 140°
2026-05-06 14:50 22.69185 -78.49431 37065 ft 535 kts 140°
2026-05-06 14:51 22.63307 -78.44531 37067 ft 534 kts 140°
2026-05-06 14:51 22.57403 -78.39619 37069 ft 535 kts 140°
2026-05-06 14:52 22.51503 -78.34723 37071 ft 536 kts 140°
2026-05-06 14:52 22.45625 -78.29830 37063 ft 534 kts 140°
2026-05-06 14:53 22.39749 -78.24927 37058 ft 533 kts 140°
2026-05-06 14:53 22.33835 -78.20001 37061 ft 534 kts 140°
2026-05-06 14:54 22.27971 -78.15125 37062 ft 532 kts 140°
2026-05-06 14:54 22.22109 -78.10253 37057 ft 533 kts 140°
2026-05-06 14:55 22.16213 -78.05360 37051 ft 530 kts 140°
2026-05-06 14:55 22.10360 -78.00510 37052 ft 533 kts 140°
2026-05-06 14:56 22.04467 -77.95634 37064 ft 535 kts 140°
2026-05-06 14:56 21.98571 -77.90759 37057 ft 533 kts 140°
2026-05-06 14:57 21.92530 -77.86175 37057 ft 534 kts 147°
2026-05-06 14:57 21.85814 -77.82633 37046 ft 536 kts 158°
2026-05-06 14:58 21.78697 -77.80283 37052 ft 535 kts 164°
2026-05-06 14:58 21.71445 -77.78236 37058 ft 537 kts 164°
2026-05-06 14:59 21.64212 -77.76144 37069 ft 536 kts 163°
2026-05-06 14:59 21.56998 -77.74043 37062 ft 533 kts 163°
2026-05-06 15:00 21.49781 -77.71948 37073 ft 535 kts 164°
2026-05-06 15:00 21.42571 -77.69859 37074 ft 535 kts 164°
2026-05-06 15:01 21.35381 -77.67780 37069 ft 533 kts 163°
2026-05-06 15:01 21.28175 -77.65698 37078 ft 535 kts 164°
2026-05-06 15:02 21.20970 -77.63620 37076 ft 533 kts 163°
2026-05-06 15:02 21.13781 -77.61550 37084 ft 536 kts 164°
2026-05-06 15:03 21.06596 -77.59484 37088 ft 533 kts 164°
2026-05-06 15:03 20.99407 -77.57428 37091 ft 533 kts 164°
2026-05-06 15:04 20.92242 -77.55370 37085 ft 533 kts 163°
2026-05-06 15:04 20.85025 -77.53284 37073 ft 533 kts 163°
2026-05-06 15:05 20.77857 -77.51219 37068 ft 533 kts 163°
2026-05-06 15:05 20.70684 -77.49160 37073 ft 534 kts 163°
2026-05-06 15:06 20.63490 -77.47102 37075 ft 532 kts 163°
2026-05-06 15:06 20.56288 -77.45244 37070 ft 534 kts 169°
2026-05-06 15:07 20.48887 -77.44514 37077 ft 532 kts 179°
2026-05-06 15:07 20.41450 -77.44719 37078 ft 534 kts 183°
2026-05-06 15:08 20.34018 -77.45232 37089 ft 533 kts 183°
2026-05-06 15:08 20.26628 -77.45504 37074 ft 532 kts 180°
2026-05-06 15:09 20.19166 -77.45621 37080 ft 534 kts 180°
2026-05-06 15:09 20.11785 -77.45773 37083 ft 533 kts 181°
2026-05-06 15:10 20.04317 -77.45950 37087 ft 531 kts 181°
2026-05-06 15:10 19.96889 -77.46130 37093 ft 534 kts 181°
2026-05-06 15:11 19.89495 -77.46315 37070 ft 530 kts 181°
2026-05-06 15:11 19.82042 -77.46503 37060 ft 533 kts 181°
2026-05-06 15:12 19.74598 -77.46693 37046 ft 533 kts 181°
2026-05-06 15:12 19.67169 -77.46886 37042 ft 532 kts 181°
2026-05-06 15:13 19.59729 -77.47079 37041 ft 533 kts 181°
2026-05-06 15:13 19.52341 -77.47137 37054 ft 533 kts 176°
2026-05-06 15:14 19.44956 -77.46029 37062 ft 532 kts 164°
2026-05-06 15:14 19.37859 -77.43883 37046 ft 531 kts 161°
2026-05-06 15:15 19.30748 -77.41608 37040 ft 529 kts 161°
2026-05-06 15:15 19.23691 -77.39401 37044 ft 531 kts 161°
2026-05-06 15:16 19.16565 -77.37174 37042 ft 532 kts 161°
2026-05-06 15:16 19.09470 -77.34956 37050 ft 533 kts 162°
2026-05-06 15:17 19.02557 -77.32796 37051 ft 532 kts 161°
2026-05-06 15:17 18.95314 -77.30535 37054 ft 532 kts 161°
2026-05-06 15:18 18.88256 -77.28331 37047 ft 531 kts 161°
2026-05-06 15:18 18.81137 -77.26108 37040 ft 530 kts 161°
2026-05-06 15:19 18.74066 -77.23904 37038 ft 531 kts 161°
2026-05-06 15:19 18.66989 -77.21683 37017 ft 528 kts 160°
2026-05-06 15:20 18.59860 -77.19454 37052 ft 529 kts 161°
2026-05-06 15:20 18.52775 -77.17264 37039 ft 532 kts 161°
2026-05-06 15:21 18.45678 -77.15067 37051 ft 530 kts 161°
2026-05-06 15:21 18.38616 -77.12879 37070 ft 531 kts 161°
2026-05-06 15:22 18.31430 -77.10658 37091 ft 529 kts 161°
2026-05-06 15:22 18.24389 -77.08478 37108 ft 532 kts 161°
2026-05-06 15:23 18.17334 -77.06296 37096 ft 526 kts 161°
2026-05-06 15:23 18.10354 -77.04137 37079 ft 529 kts 161°
2026-05-06 15:24 18.03180 -77.01923 37057 ft 530 kts 161°
2026-05-06 15:24 17.96121 -76.99747 37042 ft 530 kts 161°
2026-05-06 15:25 17.89005 -76.97554 37037 ft 529 kts 161°
2026-05-06 15:25 17.81947 -76.95386 37028 ft 528 kts 161°
2026-05-06 15:26 17.74898 -76.93224 37031 ft 529 kts 161°
2026-05-06 15:26 17.67781 -76.91023 37025 ft 526 kts 161°
2026-05-06 15:27 17.60742 -76.88847 37031 ft 529 kts 161°
2026-05-06 15:27 17.53716 -76.86682 37028 ft 527 kts 161°
2026-05-06 15:28 17.46628 -76.84502 37029 ft 525 kts 161°
2026-05-06 15:28 17.39603 -76.82345 37031 ft 527 kts 161°
2026-05-06 15:29 17.32577 -76.80177 37016 ft 525 kts 160°
2026-05-06 15:29 17.25572 -76.77993 37024 ft 524 kts 160°
2026-05-06 15:30 17.18571 -76.75822 37032 ft 526 kts 162°
2026-05-06 15:30 17.11534 -76.73652 37029 ft 523 kts 160°
2026-05-06 15:31 17.04532 -76.71497 37027 ft 524 kts 160°
2026-05-06 15:31 16.97517 -76.69350 37031 ft 524 kts 160°
2026-05-06 15:32 16.86988 -76.66181 37013 ft 521 kts 161°
2026-05-06 15:32 16.79997 -76.64088 37023 ft 522 kts 161°
2026-05-06 15:33 16.72994 -76.61993 37027 ft 523 kts 161°
2026-05-06 15:33 16.65999 -76.59901 37023 ft 521 kts 161°
2026-05-06 15:34 16.58967 -76.57777 37029 ft 525 kts 161°
2026-05-06 15:34 16.52022 -76.55655 37025 ft 519 kts 161°
2026-05-06 15:35 16.45033 -76.53522 37028 ft 521 kts 161°
2026-05-06 15:35 16.38063 -76.51399 37026 ft 518 kts 161°
2026-05-06 15:36 16.31118 -76.49285 37031 ft 523 kts 161°
2026-05-06 15:36 16.24150 -76.47170 37029 ft 519 kts 160°
2026-05-06 15:37 16.17206 -76.45042 37029 ft 520 kts 160°
2026-05-06 15:37 16.10270 -76.42942 37041 ft 519 kts 161°
2026-05-06 15:38 16.03347 -76.40861 37030 ft 517 kts 161°
2026-05-06 15:38 15.96393 -76.38770 37035 ft 520 kts 161°
2026-05-06 15:39 15.89465 -76.36674 37022 ft 516 kts 161°
2026-05-06 15:39 15.82558 -76.34594 37024 ft 519 kts 161°
2026-05-06 15:40 15.75639 -76.32510 37020 ft 516 kts 161°
2026-05-06 15:40 15.68693 -76.30418 37015 ft 517 kts 161°
2026-05-06 15:41 15.61792 -76.28344 37010 ft 514 kts 161°
2026-05-06 15:41 15.54876 -76.26264 37008 ft 518 kts 161°
2026-05-06 15:42 15.47995 -76.24199 37005 ft 515 kts 161°
2026-05-06 15:42 15.41053 -76.22115 36995 ft 515 kts 161°
2026-05-06 15:43 15.34169 -76.20052 36998 ft 517 kts 161°
2026-05-06 15:43 15.27271 -76.17987 36995 ft 513 kts 161°
2026-05-06 15:44 15.20363 -76.15921 36993 ft 515 kts 162°
2026-05-06 15:44 15.13505 -76.13874 36995 ft 514 kts 161°
2026-05-06 15:45 15.06606 -76.11816 36994 ft 515 kts 161°
2026-05-06 15:45 14.99711 -76.09770 36993 ft 514 kts 162°
2026-05-06 15:46 14.92873 -76.07695 36990 ft 513 kts 161°
2026-05-06 15:46 14.85976 -76.05554 36984 ft 513 kts 161°
2026-05-06 15:47 14.79137 -76.03439 36986 ft 513 kts 161°
2026-05-06 15:47 14.72279 -76.01322 36986 ft 516 kts 161°
2026-05-06 15:48 14.65400 -75.99204 36987 ft 514 kts 161°
2026-05-06 15:48 14.58535 -75.97091 36992 ft 515 kts 161°
2026-05-06 15:49 14.51672 -75.94982 36990 ft 511 kts 161°
2026-05-06 15:49 14.44792 -75.92870 36987 ft 514 kts 162°
2026-05-06 15:50 14.37964 -75.90777 36990 ft 513 kts 162°
2026-05-06 15:50 14.31108 -75.88676 36989 ft 513 kts 162°
2026-05-06 15:51 14.24241 -75.86573 36988 ft 513 kts 162°
2026-05-06 15:51 14.17387 -75.84476 36980 ft 509 kts 162°
2026-05-06 15:52 14.10551 -75.82388 36990 ft 513 kts 162°
2026-05-06 15:52 14.03745 -75.80309 36985 ft 508 kts 162°
2026-05-06 15:53 13.96886 -75.78217 36989 ft 513 kts 162°
2026-05-06 15:53 13.90067 -75.76137 36989 ft 511 kts 162°
2026-05-06 15:54 13.83213 -75.74048 36983 ft 512 kts 162°
2026-05-06 15:54 13.76411 -75.71976 36978 ft 509 kts 162°
2026-05-06 15:55 13.69571 -75.69894 36978 ft 512 kts 162°
2026-05-06 15:55 13.62746 -75.67818 36965 ft 511 kts 163°
2026-05-06 15:56 13.55897 -75.65737 36962 ft 511 kts 163°
2026-05-06 15:56 13.49067 -75.63662 36968 ft 513 kts 162°
2026-05-06 15:57 13.42253 -75.61594 36970 ft 511 kts 163°
2026-05-06 15:57 13.35370 -75.59513 36963 ft 513 kts 163°
2026-05-06 15:58 13.28565 -75.57455 36955 ft 508 kts 163°
2026-05-06 15:58 13.21749 -75.55396 36952 ft 511 kts 163°
2026-05-06 15:59 13.14908 -75.53328 36956 ft 512 kts 163°
2026-05-06 15:59 13.08070 -75.51262 36948 ft 511 kts 163°
2026-05-06 16:00 13.01254 -75.49203 36941 ft 510 kts 163°
2026-05-06 16:00 12.94425 -75.47141 36946 ft 512 kts 163°
2026-05-06 16:01 12.87568 -75.45070 36936 ft 509 kts 163°
2026-05-06 16:01 12.80758 -75.43014 36941 ft 511 kts 163°
2026-05-06 16:02 12.73938 -75.40958 36937 ft 510 kts 163°
2026-05-06 16:02 12.67119 -75.38902 36932 ft 510 kts 163°
2026-05-06 16:03 12.60371 -75.36867 36935 ft 511 kts 163°
2026-05-06 16:03 12.53524 -75.34805 36923 ft 509 kts 164°
2026-05-06 16:04 12.46772 -75.32765 36925 ft 509 kts 163°
2026-05-06 16:04 12.39948 -75.30705 36920 ft 510 kts 163°
2026-05-06 16:05 12.33189 -75.28668 36913 ft 507 kts 163°
2026-05-06 16:05 12.26370 -75.26614 36918 ft 509 kts 164°
2026-05-06 16:06 12.19588 -75.24574 36911 ft 507 kts 163°
2026-05-06 16:06 12.12790 -75.22530 36914 ft 508 kts 164°
2026-05-06 16:07 12.05994 -75.20488 36904 ft 506 kts 163°
2026-05-06 16:07 11.99240 -75.18460 36908 ft 509 kts 163°
2026-05-06 16:08 11.92485 -75.16436 36904 ft 505 kts 164°
2026-05-06 16:08 11.85732 -75.14415 36912 ft 507 kts 164°
2026-05-06 16:09 11.79109 -75.12435 36909 ft 504 kts 164°
2026-05-06 16:09 11.72391 -75.10430 36910 ft 508 kts 164°
2026-05-06 16:10 11.65649 -75.08424 36911 ft 505 kts 164°
2026-05-06 16:10 11.58816 -75.06561 36901 ft 506 kts 166°
2026-05-06 16:11 11.52147 -75.04848 36909 ft 505 kts 166°
2026-05-06 16:11 11.45318 -75.03087 36899 ft 504 kts 166°
2026-05-06 16:12 11.38671 -75.01362 36905 ft 506 kts 166°
2026-05-06 16:12 11.31859 -74.99593 36893 ft 502 kts 166°
2026-05-06 16:13 11.25240 -74.97872 36892 ft 505 kts 166°
2026-05-06 16:13 11.18445 -74.96091 36893 ft 502 kts 166°
2026-05-06 16:14 11.11742 -74.94362 36898 ft 504 kts 166°
2026-05-06 16:14 11.04921 -74.92592 36901 ft 505 kts 166°
2026-05-06 16:15 10.98289 -74.90873 36893 ft 503 kts 166°
2026-05-06 16:15 10.91425 -74.89095 36904 ft 505 kts 166°
2026-05-06 16:16 10.84756 -74.87369 36902 ft 501 kts 166°
2026-05-06 16:16 10.77946 -74.85604 36911 ft 505 kts 165°
2026-05-06 16:17 10.71231 -74.83708 36903 ft 501 kts 164°
2026-05-06 16:17 10.64486 -74.81763 36898 ft 504 kts 164°
2026-05-06 16:18 10.57854 -74.79868 36896 ft 503 kts 164°
2026-05-06 16:18 10.51078 -74.77943 36880 ft 503 kts 164°
2026-05-06 16:19 10.44334 -74.76027 36891 ft 505 kts 164°
2026-05-06 16:19 10.37722 -74.74149 36883 ft 501 kts 164°
2026-05-06 16:20 10.30964 -74.72234 36895 ft 505 kts 164°
2026-05-06 16:20 10.24216 -74.70322 36884 ft 501 kts 164°
2026-05-06 16:21 10.17539 -74.68430 36884 ft 504 kts 164°
2026-05-06 16:21 10.10838 -74.66522 36853 ft 501 kts 163°
2026-05-06 16:22 10.04123 -74.64590 36875 ft 501 kts 165°
2026-05-06 16:22 9.97433 -74.62723 36876 ft 504 kts 165°
2026-05-06 16:23 9.90729 -74.60834 36870 ft 502 kts 165°
2026-05-06 16:23 9.83968 -74.58930 36873 ft 504 kts 165°
2026-05-06 16:24 9.77253 -74.57042 36871 ft 500 kts 164°
2026-05-06 16:24 9.70536 -74.55151 36875 ft 503 kts 165°
2026-05-06 16:25 9.63892 -74.53281 36874 ft 501 kts 165°
2026-05-06 16:25 9.57071 -74.51363 36868 ft 502 kts 165°
2026-05-06 16:26 9.50405 -74.49489 36868 ft 500 kts 165°
2026-05-06 16:26 9.43679 -74.47598 36863 ft 501 kts 165°
2026-05-06 16:27 9.37013 -74.45724 36865 ft 499 kts 165°
2026-05-06 16:27 9.30352 -74.43848 36868 ft 501 kts 165°
2026-05-06 16:28 9.23717 -74.41982 36859 ft 499 kts 164°
2026-05-06 16:28 9.16956 -74.40082 36865 ft 501 kts 165°
2026-05-06 16:29 9.10492 -74.38267 36863 ft 497 kts 165°
2026-05-06 16:29 9.03749 -74.36375 36867 ft 500 kts 165°
2026-05-06 16:30 8.98180 -74.34815 36860 ft 497 kts 165°
2026-05-06 16:30 8.90586 -74.32685 36872 ft 500 kts 165°
2026-05-06 16:31 8.83905 -74.30814 36877 ft 498 kts 165°
2026-05-06 16:31 8.77262 -74.28950 36872 ft 500 kts 165°
2026-05-06 16:32 8.70596 -74.27083 36879 ft 498 kts 165°
2026-05-06 16:32 8.64009 -74.25227 36887 ft 498 kts 164°
2026-05-06 16:33 8.57511 -74.23408 36880 ft 497 kts 165°
2026-05-06 16:34 8.47552 -74.20630 36899 ft 497 kts 165°
2026-05-06 16:34 8.40956 -74.18788 36931 ft 496 kts 165°
2026-05-06 16:35 8.34270 -74.16921 36955 ft 498 kts 164°
2026-05-06 16:35 8.27620 -74.15064 36993 ft 497 kts 164°
2026-05-06 16:36 8.20934 -74.13197 36994 ft 493 kts 164°
2026-05-06 16:36 8.14260 -74.11335 37003 ft 495 kts 164°
2026-05-06 16:37 8.07578 -74.09472 36998 ft 493 kts 164°
2026-05-06 16:37 8.00866 -74.07602 36999 ft 494 kts 164°
2026-05-06 16:38 7.94196 -74.05755 36988 ft 493 kts 164°
2026-05-06 16:38 7.87512 -74.03899 36965 ft 494 kts 164°
2026-05-06 16:39 7.80888 -74.02052 36934 ft 494 kts 165°
2026-05-06 16:39 7.74130 -74.00185 36917 ft 493 kts 164°
2026-05-06 16:40 7.67501 -73.98352 36904 ft 492 kts 164°
2026-05-06 16:40 7.60846 -73.96513 36901 ft 492 kts 164°
2026-05-06 16:41 7.54111 -73.94653 36901 ft 492 kts 164°
2026-05-06 16:41 7.47622 -73.92863 36902 ft 492 kts 164°
2026-05-06 16:42 7.40948 -73.91022 36906 ft 493 kts 163°
2026-05-06 16:42 7.34293 -73.89188 36909 ft 491 kts 163°
2026-05-06 16:43 7.27605 -73.87346 36915 ft 493 kts 163°
2026-05-06 16:43 7.20963 -73.85518 36912 ft 490 kts 163°
2026-05-06 16:44 7.14285 -73.83682 36913 ft 494 kts 163°
2026-05-06 16:44 7.07552 -73.81995 36914 ft 491 kts 169°
2026-05-06 16:45 7.00617 -73.81376 36922 ft 496 kts 180°
2026-05-06 16:45 6.93635 -73.82066 36939 ft 495 kts 188°
2026-05-06 16:46 6.86759 -73.83397 36921 ft 496 kts 191°
2026-05-06 16:46 6.79927 -73.84876 36939 ft 496 kts 190°
2026-05-06 16:47 6.73049 -73.86142 36938 ft 496 kts 189°
2026-05-06 16:47 6.66173 -73.87392 36945 ft 497 kts 189°
2026-05-06 16:48 6.59265 -73.88678 36925 ft 496 kts 189°
2026-05-06 16:48 6.52352 -73.89977 36948 ft 499 kts 189°
2026-05-06 16:49 6.45442 -73.91293 36967 ft 495 kts 189°
2026-05-06 16:49 6.38534 -73.92579 37058 ft 497 kts 189°
2026-05-06 16:50 6.31614 -73.93850 37180 ft 497 kts 189°
2026-05-06 16:50 6.24722 -73.95124 37298 ft 497 kts 189°
2026-05-06 16:51 6.17772 -73.96419 37420 ft 497 kts 189°
2026-05-06 16:51 6.10893 -73.97707 37540 ft 498 kts 189°
2026-05-06 16:52 6.03948 -73.99022 37661 ft 497 kts 190°
2026-05-06 16:52 5.97061 -74.00340 37772 ft 497 kts 189°
2026-05-06 16:53 5.90163 -74.01607 37890 ft 495 kts 189°
2026-05-06 16:53 5.83298 -74.02886 38005 ft 497 kts 189°
2026-05-06 16:54 5.76398 -74.04182 38112 ft 498 kts 190°
2026-05-06 16:54 5.69459 -74.05493 38227 ft 496 kts 190°
2026-05-06 16:55 5.62523 -74.06812 38342 ft 497 kts 190°
2026-05-06 16:55 5.55703 -74.08114 37621 ft 495 kts 190°
2026-05-06 16:55 5.52277 -74.08769 36583 ft 496 kts 190°
2026-05-06 16:56 5.48836 -74.09438 35585 ft 499 kts 190°
2026-05-06 16:56 5.45442 -74.10133 34581 ft 501 kts 194°
2026-05-06 16:56 5.42320 -74.11279 33616 ft 501 kts 206°
2026-05-06 16:56 5.39367 -74.13213 32606 ft 501 kts 220°
2026-05-06 16:57 5.36997 -74.15750 31732 ft 501 kts 229°
2026-05-06 16:57 5.34802 -74.18529 30828 ft 500 kts 231°
2026-05-06 16:57 5.32702 -74.21307 29938 ft 499 kts 230°
2026-05-06 16:57 5.30471 -74.24003 29047 ft 497 kts 228°
2026-05-06 16:58 5.28156 -74.26673 28163 ft 495 kts 227°
2026-05-06 16:58 5.25928 -74.29400 27255 ft 494 kts 236°
2026-05-06 16:58 5.24318 -74.32587 26343 ft 493 kts 250°
2026-05-06 16:58 5.23598 -74.35915 25473 ft 491 kts 265°
2026-05-06 16:59 5.23723 -74.39369 24618 ft 488 kts 276°
2026-05-06 16:59 5.24168 -74.42747 23769 ft 485 kts 277°
2026-05-06 16:59 5.24405 -74.46082 22800 ft 474 kts 266°
2026-05-06 16:59 5.23829 -74.49237 22331 ft 450 kts 249°
2026-05-06 17:00 5.22607 -74.52052 22182 ft 431 kts 243°
2026-05-06 17:00 5.21298 -74.54684 22119 ft 412 kts 242°
2026-05-06 17:00 5.20142 -74.57255 22082 ft 394 kts 246°
2026-05-06 17:00 5.19030 -74.59674 22023 ft 376 kts 236°
2026-05-06 17:01 5.17369 -74.61627 21880 ft 365 kts 221°
2026-05-06 17:01 5.15414 -74.63365 21131 ft 379 kts 219°
2026-05-06 17:01 5.13407 -74.65127 20328 ft 387 kts 219°
2026-05-06 17:01 5.11379 -74.66938 19516 ft 394 kts 220°
2026-05-06 17:02 5.09395 -74.68804 18748 ft 398 kts 221°
2026-05-06 17:02 5.07195 -74.70405 18601 ft 378 kts 203°
2026-05-06 17:02 5.04761 -74.71328 18377 ft 364 kts 194°
2026-05-06 17:02 5.02365 -74.71921 17985 ft 354 kts 180°
2026-05-06 17:03 4.99927 -74.71748 17593 ft 340 kts 159°
2026-05-06 17:03 4.97942 -74.70830 17237 ft 327 kts 139°
2026-05-06 17:03 4.96440 -74.69220 16927 ft 313 kts 115°
2026-05-06 17:03 4.95698 -74.67228 16634 ft 306 kts 103°
2026-05-06 17:04 4.95064 -74.65170 16269 ft 309 kts 107°
2026-05-06 17:04 4.94423 -74.63387 15939 ft 310 kts 107°
2026-05-06 17:04 4.93677 -74.61295 15569 ft 308 kts 105°
2026-05-06 17:04 4.93085 -74.59266 15215 ft 304 kts 99°
2026-05-06 17:05 4.92663 -74.57199 14885 ft 300 kts 98°
2026-05-06 17:05 4.92432 -74.55250 14575 ft 297 kts 92°
2026-05-06 17:05 4.92311 -74.53226 14244 ft 295 kts 93°
2026-05-06 17:05 4.92154 -74.51159 13935 ft 293 kts 94°
2026-05-06 17:06 4.91975 -74.49151 13647 ft 289 kts 94°
2026-05-06 17:06 4.91817 -74.47395 13412 ft 284 kts 94°
2026-05-06 17:06 4.91637 -74.45410 13149 ft 278 kts 94°
2026-05-06 17:06 4.91466 -74.43508 12937 ft 270 kts 95°
2026-05-06 17:07 4.91252 -74.41650 12823 ft 264 kts 103°
2026-05-06 17:07 4.90503 -74.39979 12639 ft 270 kts 125°
2026-05-06 17:07 4.89197 -74.38627 12509 ft 271 kts 133°
2026-05-06 17:07 4.87759 -74.37321 12294 ft 277 kts 138°
2026-05-06 17:08 4.86318 -74.36071 12095 ft 269 kts 133°
2026-05-06 17:08 4.85056 -74.34772 11890 ft 262 kts 129°
2026-05-06 17:08 4.83825 -74.33385 11661 ft 255 kts 129°
2026-05-06 17:08 4.82702 -74.32045 11476 ft 245 kts 127°
2026-05-06 17:09 4.81686 -74.30754 11341 ft 233 kts 127°
2026-05-06 17:09 4.80697 -74.29496 11119 ft 225 kts 127°
2026-05-06 17:09 4.79746 -74.28271 10878 ft 222 kts 129°
2026-05-06 17:09 4.78772 -74.27034 10639 ft 226 kts 123°
2026-05-06 17:10 4.77844 -74.25799 10410 ft 220 kts 126°
2026-05-06 17:10 4.76907 -74.24581 10113 ft 216 kts 125°
2026-05-06 17:10 4.76011 -74.23409 9830 ft 211 kts 123°
2026-05-06 17:10 4.75150 -74.22240 9570 ft 204 kts 128°
2026-05-06 17:11 4.74295 -74.21155 9338 ft 191 kts 129°
2026-05-06 17:11 4.73501 -74.20126 9096 ft 180 kts 125°
2026-05-06 17:11 4.72770 -74.19147 8884 ft 174 kts 127°
2026-05-06 17:11 4.72028 -74.18198 8636 ft 171 kts 126°
2026-05-06 17:12 4.71310 -74.17261 8448 ft 168 kts 126°
2026-05-06 17:12 4.70647 -74.16376 8361 ft 137 kts 128°
2026-05-06 17:12 4.70235 -74.15843 8370 ft 73 kts 129°
2026-05-06 17:12 4.69955 -74.15456 8373 ft 60 kts 128°
2026-05-06 17:13 4.69754 -74.15197 8374 ft 33 kts 117°
2026-05-06 17:13 4.69707 -74.15022 8374 ft 22 kts 96°
2026-05-06 17:13 4.69701 -74.14864 8375 ft 22 kts 69°
2026-05-06 17:13 4.69809 -74.14764 8376 ft 21 kts 34°
2026-05-06 17:14 4.69843 -74.14740 8377 ft 3 kts 38°
2026-05-06 17:14 4.69865 -74.14722 8377 ft 6 kts 43°
2026-05-06 17:14 4.69881 -74.14693 8378 ft 6 kts 90°
2026-05-06 17:14 4.69870 -74.14642 8378 ft 4 kts 108°
2026-05-06 17:15 4.69869 -74.14638 8378 ft 0 kts 107°